Weather History for KBUF - February, 2013

Change the Weather History Date:

Sunday, February 3, 2013

  Actual Average Record
Temperature  
Mean Temperature 17 °F 25 °F  
Max Temperature 24 °F 31 °F 50 °F (1952)
Min Temperature 9 °F 18 °F -7 °F (1881)
Degree Days  
Heating Degree Days 48 40  
Month to date heating degree days 141 120  
Since 1 July heating degree days 3379 3779  
Cooling Degree Days 0 0  
Month to date cooling degree days 0 0  
Year to date cooling degree days 0 0  
Moisture  
Dew Point 12 °F    
Average Humidity 79    
Maximum Humidity 100    
Minimum Humidity 57    
Precipitation  
Precipitation 0.02 in 0.09 in 1.35 in (1880)
Month to date precipitation 0.30 0.27  
Year to date precipitation 2.80 3.45  
Snow  
Snow 0.60 in 0.70 in 8.70 in (1908)
Month to date snowfall 8.7 2.2  
Since 1 July snowfall 36.9 63.7  
Snow Depth 5.00 in    
Sea Level Pressure  
Sea Level Pressure 29.88 in    
Wind  
Wind Speed 5 mph (West)    
Max Wind Speed 20 mph    
Max Gust Speed 26 mph    
Visibility 5 miles    
Events Snow    
T = Trace of Precipitation, MM = Missing Value Source: NWS Daily Summary

Daily Weather History Graph

Daily Weather History Graph

Search for Another Location

Airport or City:

Trip Planner

Search our weather history database for the weather conditions in past years. The results will help you decide how hot, cold, wet, or windy it might be!

Date:

Astronomy

Feb. 03, 2013 Rise Set
Actual Time 7:27 AM EST 5:30 PM EST
Civil Twilight 6:57 AM EST 6:00 PM EST
Nautical Twilight 6:23 AM EST 6:34 PM EST
Astronomical Twilight 5:50 AM EST 7:07 PM EST
Moon 12:53 AM EST (2/3) 11:05 AM EST (2/3)
Length of Visible Light 11h 03m
Length of Day
10h 03m
Waning Gibbous, 49% of the Moon is Illuminated
Feb 3
Waning Gibbous
Feb 10
New
Feb 17
First Quarter
Feb 25
Full
Mar 4
Last Quarter

Hourly Weather History & Observations

Time (EST) Temp. Windchill Dew Point Humidity Pressure Visibility Wind Dir Wind Speed Gust Speed Precip Events Conditions
12:49 AM 15.8 °F 10.2 °F 12.2 °F 86% 29.93 in 2.0 mi South 3.5 mph - 0.00 in Snow Light Snow
12:54 AM 15.1 °F - 12.0 °F 88% 29.98 in 2.5 mi Calm Calm - 0.00 in Snow Light Snow
1:11 AM 15.8 °F - 14.0 °F 93% 29.93 in 1.5 mi Calm Calm - 0.00 in Snow Light Snow
1:29 AM 15.8 °F - 14.0 °F 93% 29.93 in 1.5 mi Calm Calm - 0.00 in Snow Light Snow
1:42 AM 15.8 °F - 14.0 °F 93% 29.93 in 2.0 mi Calm Calm - 0.00 in Snow Light Snow
1:54 AM 15.1 °F - 12.0 °F 88% 29.97 in 2.5 mi Calm Calm - 0.00 in Snow Light Snow
2:10 AM 15.8 °F - 12.2 °F 86% 29.93 in 3.0 mi Calm Calm - 0.00 in Snow Light Snow
2:54 AM 14.0 °F - 10.9 °F 88% 29.97 in 3.0 mi Calm Calm - 0.00 in Snow Light Snow
3:00 AM 12.2 °F - 10.4 °F 92% 29.92 in 2.5 mi Calm Calm - 0.00 in Snow Light Snow
3:19 AM 12.2 °F - 10.4 °F 92% 29.92 in 3.0 mi Calm Calm - 0.00 in Snow Light Snow
3:54 AM 12.9 °F - 9.0 °F 84% 29.95 in 3.0 mi Calm Calm - 0.00 in Snow Light Snow
4:00 AM 12.2 °F - 10.4 °F 92% 29.90 in 1.5 mi Calm Calm - 0.00 in Snow Light Snow
4:30 AM 12.2 °F - 10.4 °F 92% 29.90 in 2.0 mi Calm Calm - 0.01 in Snow Light Snow
4:35 AM 12.2 °F - 10.4 °F 92% 29.90 in 3.0 mi Calm Calm - N/A Snow Light Snow
4:49 AM 10.4 °F - 8.6 °F 92% 29.90 in 4.0 mi Calm Calm - 0.01 in Snow Light Snow
4:54 AM 10.9 °F - 8.1 °F 88% 29.94 in 4.0 mi Calm Calm - 0.01 in Snow Light Snow
5:22 AM 10.4 °F - 8.6 °F 92% 29.88 in 7.0 mi Calm Calm - 0.00 in   Mostly Cloudy
5:54 AM 12.0 °F - 8.1 °F 84% 29.92 in 6.0 mi Calm Calm - 0.00 in Snow Light Snow
6:54 AM 10.9 °F 4.7 °F 8.1 °F 88% 29.91 in 6.0 mi South 3.5 mph - 0.00 in Snow Light Snow
7:54 AM 10.0 °F 1.8 °F 7.0 °F 87% 29.92 in 6.0 mi SSE 4.6 mph - 0.00 in Snow Light Snow
8:54 AM 12.0 °F 5.9 °F 10.0 °F 92% 29.91 in 7.0 mi SW 3.5 mph - 0.00 in   Mostly Cloudy
9:54 AM 12.9 °F - 12.9 °F 100% 29.91 in 7.0 mi Calm Calm - N/A   Overcast
10:54 AM 17.1 °F 11.7 °F 15.1 °F 92% 29.89 in 9.0 mi South 3.5 mph - N/A   Overcast
11:54 AM 21.0 °F - 15.1 °F 78% 29.87 in 10.0 mi Calm Calm - N/A   Overcast
12:54 PM 21.0 °F - 12.0 °F 68% 29.84 in 10.0 mi Calm Calm - N/A   Overcast
1:54 PM 23.0 °F - 10.9 °F 60% 29.82 in 10.0 mi Calm Calm - N/A   Overcast
2:54 PM 21.9 °F 14.5 °F 9.0 °F 58% 29.81 in 9.0 mi WNW 5.8 mph - 0.00 in Snow Light Snow
3:54 PM 21.9 °F 17.2 °F 8.1 °F 55% 29.81 in 9.0 mi NW 3.5 mph - 0.00 in Snow Light Snow
4:54 PM 21.0 °F 12.4 °F 12.0 °F 68% 29.83 in 9.0 mi WNW 6.9 mph - 0.00 in Snow Light Snow
5:40 PM 19.4 °F 11.5 °F 14.0 °F 80% 29.79 in 2.5 mi West 5.8 mph - 0.00 in Snow Light Snow
5:54 PM 19.9 °F 11.1 °F 16.0 °F 85% 29.84 in 2.0 mi West 6.9 mph - 0.00 in Snow Light Snow
6:03 PM 19.4 °F 9.5 °F 15.8 °F 86% 29.80 in 1.5 mi West 8.1 mph - 0.00 in Snow Light Snow
6:27 PM 19.4 °F 8.6 °F 15.8 °F 86% 29.81 in 3.0 mi WSW 9.2 mph - 0.00 in Snow Light Snow
6:41 PM 19.4 °F 7.2 °F 15.8 °F 86% 29.81 in 4.0 mi West 11.5 mph - 0.00 in Snow Light Snow
6:54 PM 19.0 °F 7.5 °F 12.9 °F 77% 29.86 in 3.0 mi West 10.4 mph - 0.00 in Snow Light Snow
7:47 PM 19.4 °F 7.9 °F 14.0 °F 80% 29.83 in 3.0 mi West 10.4 mph - 0.00 in Snow Light Snow
7:54 PM 19.0 °F 6.8 °F 14.0 °F 81% 29.88 in 2.0 mi West 11.5 mph - 0.00 in Snow Light Snow
8:01 PM 17.6 °F 5.7 °F 14.0 °F 86% 29.83 in 1.0 mi West 10.4 mph - 0.00 in Snow Light Snow
8:15 PM 17.6 °F 7.3 °F 14.0 °F 86% 29.83 in 6.0 mi West 8.1 mph - 0.01 in Snow Light Snow
8:28 PM 17.6 °F 6.4 °F 12.2 °F 79% 29.83 in 7.0 mi West 9.2 mph - 0.01 in Snow Light Snow
8:54 PM 18.0 °F 4.8 °F 12.9 °F 81% 29.88 in 2.5 mi West 12.7 mph - 0.01 in Snow Light Snow
9:09 PM 17.6 °F 3.7 °F 12.2 °F 79% 29.84 in 9.0 mi West 13.8 mph 20.7 mph 0.00 in Snow Light Snow
9:54 PM 17.1 °F 3.6 °F 9.0 °F 71% 29.89 in 10.0 mi West 12.7 mph 19.6 mph 0.00 in   Overcast
10:54 PM 17.6 °F 3.7 °F 10.4 °F 73% 29.84 in 10.0 mi West 13.8 mph - N/A   Overcast
11:54 PM 18.0 °F 4.2 °F 10.0 °F 71% 29.88 in 10.0 mi West 13.8 mph 21.9 mph N/A   Overcast